Time,TemperatureF,DewpointF,PressureIn,WindDirection,WindDirectionDegrees,WindSpeedMPH,WindSpeedGustMPH,Humidity,HourlyPrecipIn,Conditions,Clouds,dailyrainin,SolarRadiationWatts/m^2,SoftwareType,DateUTC
2013-05-14 00:10:00,69.6,29.0,29.79,SSW,205,0.0,-999.0,22,-99.99,,,0.00,0,weatherlink.com 1.10,2013-05-14 06:10:00,
2013-05-14 00:25:00,69.3,29.0,29.79,SW,223,0.0,-999.0,22,-99.99,,,0.00,0,weatherlink.com 1.10,2013-05-14 06:25:00,
2013-05-14 00:40:00,69.5,29.0,29.79,South,177,0.0,-999.0,22,-99.99,,,0.00,0,weatherlink.com 1.10,2013-05-14 06:40:00,
2013-05-14 00:55:00,69.7,28.0,29.79,South,177,0.0,-999.0,21,-99.99,,,0.00,0,weatherlink.com 1.10,2013-05-14 06:55:00,
2013-05-14 01:10:00,69.7,28.0,29.79,West,266,0.0,-999.0,21,-99.99,,,0.00,0,weatherlink.com 1.10,2013-05-14 07:10:00,
2013-05-14 01:25:00,70.7,28.0,29.79,WSW,254,0.0,-999.0,20,-99.99,,,0.00,0,weatherlink.com 1.10,2013-05-14 07:25:00,
2013-05-14 01:40:00,71.0,28.0,29.79,WSW,251,0.0,-999.0,20,-99.99,,,0.00,0,weatherlink.com 1.10,2013-05-14 07:40:00,
2013-05-14 01:55:00,69.1,29.0,29.78,West,266,0.0,-999.0,22,-99.99,,,0.00,0,weatherlink.com 1.10,2013-05-14 07:55:00,
2013-05-14 02:10:00,65.4,29.0,29.78,North,355,1.0,-999.0,25,-99.99,,,0.00,0,weatherlink.com 1.10,2013-05-14 08:10:00,
2013-05-14 02:25:00,61.9,30.0,29.79,NNE,30,1.0,-999.0,30,-99.99,,,0.00,0,weatherlink.com 1.10,2013-05-14 08:25:00,
2013-05-14 02:40:00,59.3,31.0,29.79,NE,34,0.0,-999.0,34,-99.99,,,0.00,0,weatherlink.com 1.10,2013-05-14 08:40:00,
2013-05-14 02:55:00,59.8,32.0,29.79,NE,42,0.0,-999.0,35,-99.99,,,0.00,0,weatherlink.com 1.10,2013-05-14 08:55:00,
2013-05-14 03:10:00,59.1,32.0,29.79,NE,42,0.0,-999.0,36,-99.99,,,0.00,0,weatherlink.com 1.10,2013-05-14 09:10:00,
2013-05-14 03:25:00,60.9,31.0,29.79,NE,42,0.0,-999.0,33,-99.99,,,0.00,0,weatherlink.com 1.10,2013-05-14 09:25:00,
2013-05-14 03:40:00,61.8,31.0,29.79,NNW,329,0.0,-999.0,31,-99.99,,,0.00,0,weatherlink.com 1.10,2013-05-14 09:40:00,
2013-05-14 03:55:00,61.5,31.0,29.79,NNW,330,0.0,-999.0,32,-99.99,,,0.00,0,weatherlink.com 1.10,2013-05-14 09:55:00,
2013-05-14 04:10:00,60.9,31.0,29.80,NNW,333,0.0,-999.0,32,-99.99,,,0.00,0,weatherlink.com 1.10,2013-05-14 10:10:00,
2013-05-14 04:25:00,60.6,30.0,29.79,NNW,333,0.0,-999.0,32,-99.99,,,0.00,0,weatherlink.com 1.10,2013-05-14 10:25:00,
2013-05-14 04:40:00,60.7,30.0,29.80,NNW,333,0.0,-999.0,32,-99.99,,,0.00,0,weatherlink.com 1.10,2013-05-14 10:40:00,
2013-05-14 04:55:00,61.2,30.0,29.80,NNW,331,0.0,-999.0,31,-99.99,,,0.00,0,weatherlink.com 1.10,2013-05-14 10:55:00,
2013-05-14 05:10:00,61.6,31.0,29.79,SSE,166,4.0,-999.0,31,-99.99,,,0.00,0,weatherlink.com 1.10,2013-05-14 11:10:00,
2013-05-14 05:25:00,60.3,30.0,29.80,SSE,166,0.0,-999.0,32,-99.99,,,0.00,0,weatherlink.com 1.10,2013-05-14 11:25:00,
2013-05-14 05:40:00,61.2,30.0,29.80,SSE,166,0.0,-999.0,31,-99.99,,,0.00,0,weatherlink.com 1.10,2013-05-14 11:40:00,
2013-05-14 05:55:00,60.7,30.0,29.80,SSE,166,0.0,-999.0,32,-99.99,,,0.00,9,weatherlink.com 1.10,2013-05-14 11:55:00,
2013-05-14 06:10:00,60.7,30.0,29.80,SSW,206,0.0,-999.0,32,-99.99,,,0.00,21,weatherlink.com 1.10,2013-05-14 12:10:00,
2013-05-14 06:26:00,57.3,31.0,29.80,SSW,206,0.0,-999.0,37,-99.99,,,0.00,42,weatherlink.com 1.10,2013-05-14 12:26:00,
2013-05-14 06:41:00,58.7,32.0,29.81,North,355,0.0,-999.0,36,-99.99,,,0.00,37,weatherlink.com 1.10,2013-05-14 12:41:00,
2013-05-14 06:56:00,57.9,36.0,29.81,NNE,26,1.0,-999.0,44,-99.99,,,0.00,121,weatherlink.com 1.10,2013-05-14 12:56:00,
2013-05-14 07:11:00,58.1,35.0,29.81,North,360,0.0,-999.0,43,-99.99,,,0.00,181,weatherlink.com 1.10,2013-05-14 13:11:00,
2013-05-14 07:26:00,60.3,36.0,29.82,NNE,19,0.0,-999.0,40,-99.99,,,0.00,42,weatherlink.com 1.10,2013-05-14 13:26:00,
2013-05-14 07:41:00,60.8,35.0,29.82,NE,35,0.0,-999.0,38,-99.99,,,0.00,295,weatherlink.com 1.10,2013-05-14 13:41:00,
2013-05-14 07:56:00,59.8,35.0,29.82,NE,45,0.0,-999.0,39,-99.99,,,0.00,54,weatherlink.com 1.10,2013-05-14 13:56:00,
2013-05-14 08:11:00,62.7,35.0,29.82,NE,42,0.0,-999.0,35,-99.99,,,0.00,401,weatherlink.com 1.10,2013-05-14 14:11:00,
2013-05-14 08:26:00,66.0,34.0,29.82,NNE,33,0.0,-999.0,30,-99.99,,,0.00,476,weatherlink.com 1.10,2013-05-14 14:26:00,
2013-05-14 08:41:00,69.0,32.0,29.82,WNW,283,0.0,-999.0,25,-99.99,,,0.00,499,weatherlink.com 1.10,2013-05-14 14:41:00,
2013-05-14 08:56:00,71.2,36.0,29.82,NNE,26,0.0,-999.0,28,-99.99,,,0.00,557,weatherlink.com 1.10,2013-05-14 14:56:00,
2013-05-14 09:11:00,73.2,33.0,29.82,North,9,0.0,-999.0,23,-99.99,,,0.00,598,weatherlink.com 1.10,2013-05-14 15:11:00,
2013-05-14 09:26:00,75.2,35.0,29.82,NNW,329,0.0,-999.0,23,-99.99,,,0.00,647,weatherlink.com 1.10,2013-05-14 15:26:00,
2013-05-14 09:41:00,76.5,33.0,29.82,WNW,283,0.0,-999.0,20,-99.99,,,0.00,628,weatherlink.com 1.10,2013-05-14 15:41:00,
2013-05-14 09:56:00,76.1,33.0,29.81,SW,221,0.0,-999.0,21,-99.99,,,0.00,687,weatherlink.com 1.10,2013-05-14 15:56:00,
2013-05-14 10:11:00,77.1,34.0,29.80,West,280,0.0,-999.0,21,-99.99,,,0.00,673,weatherlink.com 1.10,2013-05-14 16:11:00,
2013-05-14 10:26:00,78.3,31.0,29.80,West,274,0.0,-999.0,18,-99.99,,,0.00,779,weatherlink.com 1.10,2013-05-14 16:26:00,
2013-05-14 10:41:00,78.4,27.0,29.80,WNW,302,2.0,-999.0,15,-99.99,,,0.00,824,weatherlink.com 1.10,2013-05-14 16:41:00,
2013-05-14 10:57:00,79.8,28.0,29.80,WNW,284,0.0,-999.0,15,-99.99,,,0.00,700,weatherlink.com 1.10,2013-05-14 16:57:00,
2013-05-14 11:12:00,79.9,30.0,29.80,NNE,28,0.0,-999.0,16,-99.99,,,0.00,772,weatherlink.com 1.10,2013-05-14 17:12:00,
2013-05-14 11:27:00,81.8,33.0,29.79,NNW,331,0.0,-999.0,17,-99.99,,,0.00,846,weatherlink.com 1.10,2013-05-14 17:27:00,
2013-05-14 11:42:00,82.7,27.0,29.79,WNW,285,13.0,-999.0,13,-99.99,,,0.00,816,weatherlink.com 1.10,2013-05-14 17:42:00,
2013-05-14 11:57:00,81.2,26.0,29.78,SW,221,8.0,-999.0,13,-99.99,,,0.00,849,weatherlink.com 1.10,2013-05-14 17:57:00,
2013-05-14 12:12:00,81.8,20.0,29.77,West,279,11.0,-999.0,10,-99.99,,,0.00,956,weatherlink.com 1.10,2013-05-14 18:12:00,
2013-05-14 12:27:00,81.1,20.0,29.76,WNW,289,14.0,-999.0,10,-99.99,,,0.00,823,weatherlink.com 1.10,2013-05-14 18:27:00,
2013-05-14 12:42:00,82.0,20.0,29.76,WSW,253,29.0,-999.0,10,-99.99,,,0.00,954,weatherlink.com 1.10,2013-05-14 18:42:00,
2013-05-14 12:57:00,81.5,17.0,29.75,WSW,251,21.0,-999.0,9,-99.99,,,0.00,963,weatherlink.com 1.10,2013-05-14 18:57:00,
2013-05-14 13:12:00,81.7,17.0,29.75,WSW,245,24.0,-999.0,9,-99.99,,,0.00,942,weatherlink.com 1.10,2013-05-14 19:12:00,
2013-05-14 13:27:00,82.9,16.0,29.75,WNW,287,13.0,-999.0,8,-99.99,,,0.00,930,weatherlink.com 1.10,2013-05-14 19:27:00,
2013-05-14 13:42:00,83.2,16.0,29.74,West,268,18.0,-999.0,8,-99.99,,,0.00,974,weatherlink.com 1.10,2013-05-14 19:42:00,
2013-05-14 13:57:00,82.3,18.0,29.74,West,274,19.0,-999.0,9,-99.99,,,0.00,942,weatherlink.com 1.10,2013-05-14 19:57:00,
2013-05-14 14:12:00,82.1,20.0,29.73,West,275,19.0,-999.0,10,-99.99,,,0.00,940,weatherlink.com 1.10,2013-05-14 20:12:00,
2013-05-14 14:27:00,81.9,22.0,29.74,West,261,18.0,-999.0,11,-99.99,,,0.00,1025,weatherlink.com 1.10,2013-05-14 20:27:00,
2013-05-14 14:42:00,82.9,21.0,29.73,West,275,12.0,-999.0,10,-99.99,,,0.00,1007,weatherlink.com 1.10,2013-05-14 20:42:00,
2013-05-14 14:57:00,83.9,26.0,29.72,WSW,248,18.0,-999.0,12,-99.99,,,0.00,967,weatherlink.com 1.10,2013-05-14 20:57:00,
2013-05-14 15:12:00,83.5,24.0,29.73,West,262,24.0,-999.0,11,-99.99,,,0.00,972,weatherlink.com 1.10,2013-05-14 21:12:00,
2013-05-14 15:27:00,83.5,24.0,29.71,West,274,17.0,-999.0,11,-99.99,,,0.00,935,weatherlink.com 1.10,2013-05-14 21:27:00,
2013-05-14 15:42:00,83.4,24.0,29.72,West,273,16.0,-999.0,11,-99.99,,,0.00,860,weatherlink.com 1.10,2013-05-14 21:42:00,
2013-05-14 15:57:00,82.9,25.0,29.71,WSW,252,31.0,-999.0,12,-99.99,,,0.00,821,weatherlink.com 1.10,2013-05-14 21:57:00,
2013-05-14 16:12:00,82.7,27.0,29.70,West,261,18.0,-999.0,13,-99.99,,,0.00,717,weatherlink.com 1.10,2013-05-14 22:12:00,
2013-05-14 16:27:00,81.5,26.0,29.71,WSW,249,12.0,-999.0,13,-99.99,,,0.00,698,weatherlink.com 1.10,2013-05-14 22:27:00,
2013-05-14 16:42:00,82.0,26.0,29.70,WSW,248,19.0,-999.0,13,-99.99,,,0.00,617,weatherlink.com 1.10,2013-05-14 22:42:00,
2013-05-14 16:57:00,82.7,25.0,29.70,West,263,18.0,-999.0,12,-99.99,,,0.00,633,weatherlink.com 1.10,2013-05-14 22:57:00,
2013-05-14 17:12:00,82.7,27.0,29.69,WSW,258,16.0,-999.0,13,-99.99,,,0.00,578,weatherlink.com 1.10,2013-05-14 23:12:00,
2013-05-14 17:27:00,81.5,26.0,29.70,WSW,246,24.0,-999.0,13,-99.99,,,0.00,526,weatherlink.com 1.10,2013-05-14 23:27:00,
2013-05-14 17:42:00,81.6,28.0,29.69,West,281,14.0,-999.0,14,-99.99,,,0.00,206,weatherlink.com 1.10,2013-05-14 23:42:00,
2013-05-14 17:57:00,82.2,27.0,29.69,West,270,17.0,-999.0,13,-99.99,,,0.00,410,weatherlink.com 1.10,2013-05-14 23:57:00,
2013-05-14 18:12:00,81.2,24.0,29.70,West,277,6.0,-999.0,12,-99.99,,,0.00,355,weatherlink.com 1.10,2013-05-15 00:12:00,
2013-05-14 18:27:00,81.5,28.0,29.70,West,264,18.0,-999.0,14,-99.99,,,0.00,309,weatherlink.com 1.10,2013-05-15 00:27:00,
2013-05-14 18:42:00,80.4,27.0,29.70,West,261,12.0,-999.0,14,-99.99,,,0.00,257,weatherlink.com 1.10,2013-05-15 00:42:00,
2013-05-14 18:57:00,79.9,27.0,29.70,West,275,12.0,-999.0,14,-99.99,,,0.00,206,weatherlink.com 1.10,2013-05-15 00:57:00,
2013-05-14 19:12:00,79.3,26.0,29.70,WNW,284,19.0,-999.0,14,-99.99,,,0.00,142,weatherlink.com 1.10,2013-05-15 01:12:00,
2013-05-14 19:27:00,78.4,25.0,29.70,West,273,10.0,-999.0,14,-99.99,,,0.00,76,weatherlink.com 1.10,2013-05-15 01:27:00,
2013-05-14 19:42:00,77.9,25.0,29.70,WNW,286,6.0,-999.0,14,-99.99,,,0.00,42,weatherlink.com 1.10,2013-05-15 01:42:00,
2013-05-14 19:57:00,76.6,26.0,29.71,West,277,7.0,-999.0,15,-99.99,,,0.00,18,weatherlink.com 1.10,2013-05-15 01:57:00,
2013-05-14 20:12:00,74.4,27.0,29.71,West,277,4.0,-999.0,17,-99.99,,,0.00,7,weatherlink.com 1.10,2013-05-15 02:12:00,
2013-05-14 20:27:00,72.6,27.0,29.72,West,281,5.0,-999.0,18,-99.99,,,0.00,5,weatherlink.com 1.10,2013-05-15 02:27:00,
2013-05-14 20:42:00,72.1,26.0,29.72,West,281,3.0,-999.0,18,-99.99,,,0.00,0,weatherlink.com 1.10,2013-05-15 02:42:00,
2013-05-14 20:57:00,71.9,27.0,29.73,WNW,285,4.0,-999.0,19,-99.99,,,0.00,0,weatherlink.com 1.10,2013-05-15 02:57:00,
2013-05-14 21:12:00,71.6,27.0,29.73,WSW,258,4.0,-999.0,19,-99.99,,,0.00,0,weatherlink.com 1.10,2013-05-15 03:12:00,
2013-05-14 21:27:00,70.1,27.0,29.75,West,280,4.0,-999.0,20,-99.99,,,0.00,0,weatherlink.com 1.10,2013-05-15 03:27:00,
2013-05-14 21:42:00,68.6,27.0,29.76,WNW,296,0.0,-999.0,21,-99.99,,,0.00,0,weatherlink.com 1.10,2013-05-15 03:42:00,
2013-05-14 21:57:00,68.0,28.0,29.76,West,281,1.0,-999.0,22,-99.99,,,0.00,0,weatherlink.com 1.10,2013-05-15 03:57:00,
2013-05-14 22:12:00,67.7,27.0,29.77,West,277,2.0,-999.0,22,-99.99,,,0.00,0,weatherlink.com 1.10,2013-05-15 04:12:00,
2013-05-14 22:27:00,67.8,29.0,29.77,WNW,284,3.0,-999.0,23,-99.99,,,0.00,0,weatherlink.com 1.10,2013-05-15 04:27:00,
2013-05-14 22:42:00,66.6,29.0,29.78,West,280,4.0,-999.0,24,-99.99,,,0.00,0,weatherlink.com 1.10,2013-05-15 04:42:00,
2013-05-14 22:57:00,65.9,29.0,29.78,WNW,287,0.0,-999.0,25,-99.99,,,0.00,0,weatherlink.com 1.10,2013-05-15 04:57:00,
2013-05-14 23:12:00,66.2,28.0,29.78,WNW,283,4.0,-999.0,24,-99.99,,,0.00,0,weatherlink.com 1.10,2013-05-15 05:12:00,
2013-05-14 23:27:00,65.9,29.0,29.78,WNW,283,3.0,-999.0,25,-99.99,,,0.00,0,weatherlink.com 1.10,2013-05-15 05:27:00,
2013-05-14 23:42:00,65.8,29.0,29.78,WNW,285,4.0,-999.0,25,-99.99,,,0.00,0,weatherlink.com 1.10,2013-05-15 05:42:00,
2013-05-14 23:57:00,65.4,29.0,29.78,WNW,283,4.0,-999.0,25,-99.99,,,0.00,0,weatherlink.com 1.10,2013-05-15 05:57:00,